{"data":{"norad_id":51469,"epoch":"2026-05-24T19:20:49.896384Z","epoch_age_seconds":88812,"freshness":"FRESH","line1":"1 51469U 22010P   26144.80613306  .00002819  00000+0  19521-3 0  9994","line2":"2 51469  53.2140 297.4207 0001390  88.8767 271.2385 15.08825663238319","mean_motion":15.08825663,"eccentricity":0.000139,"inclination_deg":53.214,"raan_deg":297.4207,"arg_perigee_deg":88.8767,"mean_anomaly_deg":271.2385,"bstar":0.00019521,"rev_number":23831,"period_min":95.438461534174,"perigee_km":538.82562031906,"apogee_km":540.74880324994,"semimajor_km":6917.9242117845,"source":"CELESTRAK","updated_at":"2026-05-25T13:38:16.919169Z"}}